Flag for Canada Weather past 2 weeks in Iqaluit, Nunavut, Canada

Now
36 °F

Clear.


Feels Like: 36 °F
Forecast: 32 / 47 °F
Wind: No wind

Location: Iqaluit

Current Time: Sep 1, 2015 at 2:15:55 AM

Latest Report: Sep 1, 2015 at 1:00 AM


Visibility: 15 mi

Pressure: 30.03 "Hg

Humidity: 93%

Dew point: 34 °F

Location of IqaluitLocation

Historic Weather in Iqaluit — Graph

°F

Iqaluit temperature yesterday

Maximum temperature yesterday: 54 °F (at 4:00 PM)
Minimum temperature yesterday: 37 °F (at 11:00 PM)
Average temperature yesterday: 45 °F

Past Weeks' High & Low Weather Summary

 TemperatureHumidityPressure
High54 °F (Aug 31, 4:00 PM)100% (Aug 27, 2:00 AM)30.34 "Hg (Aug 27, 2:00 AM)
Low30 °F (Aug 24, 12:00 AM)53% (Aug 19, 12:00 PM)29.51 "Hg (Aug 27, 3:00 PM)
Average40 °F81%29.91 "Hg
* Reported Aug 17 1:00 AM — Sep 1 1:00 AM, Iqaluit, Weather by CustomWeather, © 2015

Note: Actual official high and low records may vary slightly from our data, if they occured in-between our weather recording intervals... More about our weather records

Advertising

Iqaluit weather history for previous 24 hours

 ConditionsComfort  
Time TempWeatherWind HumidityBarometerVisibility
1:00 AM
Tue, Sep 1
36 °FClear.No wind93%30.03 "Hg15 mi
12:00 AM37 °FPassing clouds.2 mph87%30.03 "Hg15 mi
11:00 PM
Mon, Aug 31
37 °FPassing clouds.2 mph87%30.02 "Hg15 mi
10:00 PM39 °FPassing clouds.13 mph81%30.02 "Hg15 mi
9:00 PM46 °FPassing clouds.17 mph62%30.01 "Hg15 mi
8:00 PM46 °FScattered clouds.14 mph62%30.00 "Hg30 mi
7:00 PM50 °FPartly sunny.15 mph58%29.99 "Hg30 mi
6:00 PM52 °FPartly sunny.14 mph54%29.98 "Hg30 mi
5:00 PM54 °FPartly sunny.15 mph54%29.97 "Hg30 mi
4:00 PM54 °FPartly sunny.15 mph54%29.96 "Hg30 mi
3:00 PM52 °FScattered clouds.15 mph58%29.96 "Hg30 mi
2:00 PM52 °FScattered clouds.17 mph58%29.96 "Hg30 mi
1:00 PM50 °FPassing clouds.16 mph67%29.95 "Hg30 mi
12:00 PM46 °FPassing clouds.17 mph71%29.96 "Hg30 mi
11:00 AM45 °FBroken clouds.16 mph76%29.96 "Hg30 mi
10:00 AM43 °FPartly sunny.17 mph76%29.96 "Hg30 mi
9:00 AM41 °FPartly sunny.18 mph81%29.94 "Hg30 mi
8:00 AM41 °FPartly sunny.17 mph81%29.94 "Hg30 mi
7:00 AM41 °FPartly sunny.22 mph81%29.93 "Hg20 mi
6:00 AM39 °FPassing clouds.18 mph93%29.92 "Hg20 mi
5:00 AM39 °FPassing clouds.18 mph93%29.90 "Hg30 mi
4:00 AM41 °FPassing clouds.20 mph87%29.88 "Hg15 mi
3:00 AM41 °FPassing clouds.21 mph87%29.87 "Hg15 mi
2:00 AM41 °FPassing clouds.17 mph87%29.86 "Hg15 mi
Weather by CustomWeather, © 2015

See weather overviewHow to use our weather pages